Home   Weather   Louisville   Past weeks

Flag for USA Past Weather in Louisville, Kentucky, USA — Yesterday and Last 2 Weeks

Now
80 °F

Partly sunny.


Feels Like: 85 °F
Forecast: 72 / 83 °F
Wind: 6 mph from North

Location: Standiford Field

Current Time: Jul 28, 2017 at 12:55:50 pm

Latest Report: Jul 28, 2017 at 11:56 am


Visibility: 9 mi

Pressure: 29.79 "Hg

Humidity: 87%

Dew Point: 76 °F

Location of LouisvilleLocation

Past Weather in Louisville — Graph

°F

Louisville Temperature Yesterday

Maximum temperature yesterday: 89 °F (at 4:56 pm)
Minimum temperature yesterday: 79 °F (at 7:56 am)
Average temperature yesterday: 83 °F

High & Low Weather Summary for the Past Weeks

 TemperatureHumidityPressure
High96 °F (Jul 21, 3:56 pm)94% (Jul 28, 6:25 am)30.14 "Hg (Jul 28, 6:25 am)
Low68 °F (Jul 16, 5:56 am)36% (Jul 19, 3:56 pm)29.79 "Hg (Jul 22, 3:56 pm)
Average82 °F66%29.98 "Hg
* Reported Jul 13 11:56 am — Jul 28 11:44 am, Louisville. Weather by CustomWeather, © 2017

Note: Actual official high and low records may vary slightly from our data, if they occured in-between our weather recording intervals... More about our weather records

Advertising

Louisville Weather History for the Previous 24 Hours

Scroll right to see more
 ConditionsComfort  
Time TempWeatherWind HumidityBarometerVisibility
11:44 am
Fri, Jul 28
78 °FLight rain. Fog.6 mph93%29.80 "Hg4 mi
10:56 am76 °FRain. Fog.6 mph94%29.79 "Hg2 mi
10:41 am76 °FLight rain. Fog.5 mph94%29.81 "Hg2 mi
9:56 am76 °FLight rain. Fog.3 mph94%29.79 "Hg3 mi
9:38 am76 °FLight rain. Fog.3 mph94%29.81 "Hg1 mi
9:05 am76 °FFog.No wind91%29.81 "Hg5 mi
8:32 am75 °FDrizzle. Low clouds.5 mph94%29.81 "Hg2 mi
7:56 am76 °FLow clouds.5 mph88%29.80 "Hg7 mi
6:56 am75 °FLow clouds.6 mph94%29.80 "Hg9 mi
6:25 am75 °FLight rain. Fog.5 mph94%29.82 "Hg5 mi
5:56 am76 °FOvercast.5 mph88%29.80 "Hg9 mi
4:56 am76 °FPassing clouds.No wind88%29.80 "Hg10 mi
4:21 am75 °FPassing clouds.3 mph90%29.82 "Hg10 mi
3:56 am76 °FPartly cloudy.5 mph88%29.81 "Hg10 mi
2:56 am76 °FLight rain. Overcast.6 mph88%29.82 "Hg9 mi
1:56 am77 °FOvercast.7 mph85%29.83 "Hg10 mi
12:56 am78 °FOvercast.6 mph82%29.85 "Hg10 mi
11:56 pm
Thu, Jul 27
79 °FLight rain. Overcast.6 mph79%29.83 "Hg10 mi
10:56 pm80 °FMostly cloudy.7 mph79%29.85 "Hg9 mi
9:56 pm81 °FMostly cloudy.9 mph79%29.85 "Hg8 mi
8:56 pm83 °FBroken clouds.9 mph79%29.85 "Hg6 mi
7:56 pm85 °FBroken clouds.6 mph68%29.85 "Hg9 mi
6:56 pm86 °FPartly sunny.12 mph63%29.85 "Hg9 mi
5:56 pm89 °FBroken clouds.8 mph61%29.85 "Hg9 mi
4:56 pm89 °FBroken clouds.10 mph59%29.86 "Hg9 mi
3:56 pm86 °FBroken clouds.7 mph67%29.89 "Hg7 mi
3:15 pm85 °FCloudy.9 mph72%29.93 "Hg8 mi
2:56 pm85 °FMostly cloudy.10 mph72%29.91 "Hg7 mi
2:27 pm83 °FMostly cloudy.9 mph77%29.94 "Hg7 mi
1:56 pm83 °FCloudy.9 mph77%29.93 "Hg7 mi
12:56 pm82 °FLight rain. Cloudy.6 mph82%29.94 "Hg6 mi
12:17 pm83 °FLight rain. Partly sunny.6 mph77%29.96 "Hg6 mi
Weather by CustomWeather, © 2017

See weather overviewHow to use our weather pages